This demonstration page uses our WeatherBlox Daily Observations layout. Learn more.

39.29038, -76.61219

Hourly Observations for October 2, 2019

Temp ( °F °C ) Dew Point ( °F °C ) Humidity (%) Winds ( mph kmh ) Pressure ( in mb ) Visibility ( mi km ) Precip ( " mm )
12:54 am 00:54 undefined 74 23.3 67 19.4 79 79 undefined N/A 29.93 1013 N/A 0 0
1:54 am 01:54 undefined 74 23.3 67 19.4 79 79 undefined N/A 29.92 1013 N/A 0 0
2:54 am 02:54 undefined 74 23.3 67 19.4 79 79 undefined N/A 29.91 1013 N/A 0 0
3:54 am 03:54 undefined 74 23.3 67 19.4 79 79 undefined N/A 29.91 1013 N/A 0 0
4:54 am 04:54 undefined 74 23.3 68 20 82 82 undefined N/A 29.91 1013 N/A 0 0
5:54 am 05:54 undefined 74 23.3 68 20 82 82 undefined N/A 29.91 1013 N/A 0 0
6:54 am 06:54 undefined 73 22.8 68 20 84 84 undefined N/A 29.91 1013 N/A 0 0
7:54 am 07:54 undefined 75 23.9 69 20.6 82 82 undefined N/A 29.92 1013 N/A 0 0
8:54 am 08:54 undefined 77 25 69 20.6 77 77 undefined N/A 29.92 1013 N/A 0 0
9:54 am 09:54 undefined 86 30 69 20.6 57 57 undefined N/A 29.91 1013 N/A 0 0
10:54 am 10:54 undefined 91 32.8 67 19.4 45 45 undefined N/A 29.89 1012 N/A 0 0
11:54 am 11:54 undefined 94 34.4 64 17.8 37 37 undefined N/A 29.88 1012 N/A 0 0
12:54 pm 12:54 undefined 95 35 62 16.7 34 34 undefined N/A 29.86 1011 N/A 0 0
1:54 pm 13:54 undefined 94 34.4 62 16.7 35 35 undefined N/A 29.85 1011 N/A 0 0
2:54 pm 14:54 undefined 93 33.9 63 17.2 37 37 undefined N/A 29.84 1011 N/A 0 0
3:54 pm 15:54 undefined 94 34.4 61 16.1 33 33 undefined N/A 29.83 1010 N/A 0 0
4:54 pm 16:54 undefined 93 33.9 63 17.2 37 37 undefined N/A 29.82 1010 N/A 0 0
5:54 pm 17:54 undefined 92 33.3 63 17.2 38 38 undefined N/A 29.81 1010 N/A 0 0
6:54 pm 18:54 undefined 91 32.8 63 17.2 39 39 undefined N/A 29.82 1010 N/A 0 0
7:54 pm 19:54 undefined 89 31.7 65 18.3 45 45 undefined N/A 29.84 1011 N/A 0 0
8:54 pm 20:54 undefined 87 30.6 64 17.8 46 46 undefined N/A 29.85 1011 N/A 0 0
9:54 pm 21:54 undefined 87 30.6 64 17.8 46 46 undefined N/A 29.88 1012 N/A 0 0
10:54 pm 22:54 undefined 87 30.6 63 17.2 45 45 undefined N/A 29.88 1012 N/A 0 0
11:54 pm 23:54 undefined 86 30 65 18.3 49 49 undefined N/A 29.89 1012 N/A 0 0

Powered by AerisWeather